Temp
56 56 56 56 56 56 56 56 56 56 57 58 58 58 58 58 58 59 61 65 59 55 64 67 67 62 64 64 60 68 66 68 67 59 63 62 63 67 66 72 70 68 66 68 70 65 61 84 81 74 82 85 86 85
56 55 55 55 55 55 55 56 56 56 56 57 58 58 58 58 58 57 55 66 57 50 57 68 69 71 70 69 66 67 66 64 70 59 63 64 60 68 66 62 73 67 76 72 74 71 80 84 85 88 88 84 84 84
55 54 54 55 55 55 55 55 56 56 56 57 57 58 58 58 57 56 55 57 54 50 58 65 65 73 77 74 76 61 67 70 69 70 63 59 56 65 57 65 66 73 74 72 70 74 77 83 85 86 87 86 85 86
54 54 54 54 54 54 55 55 56 56 56 56 57 57 58 58 57 57 54 57 54 50 45 62 74 69 76 76 74 73 70 73 71 70 64 57 57 67 60 65 64 73 71 70 72 72 75 81 84 85 84 85 85 86
53 53 54 54 54 54 55 55 55 56 56 56 56 57 58 58 57 60 63 58 58 50 47 55 66 72 74 72 70 71 69 66 65 61 60 49 54 59 66 66 65 72 69 66 72 73 76 75 83 85 83 82 83 83
53 53 53 54 54 54 54 55 55 56 56 56 56 57 58 57 56 61 55 57 57 55 45 46 70 67 69 68 68 66 67 66 65 61 58 58 56 59 54 57 68 76 74 73 71 77 79 82 84 86 83 83 84 84
53 53 53 53 54 54 54 54 55 56 56 56 56 56 56 55 60 54 51 52 53 54 47 48 60 64 63 60 63 65 68 62 60 61 55 52 53 58 49 49 68 73 75 75 75 76 71 80 77 85 85 85 80 86
53 53 53 53 53 54 54 54 55 56 56 56 55 56 56 55 55 54 62 53 55 50 53 48 55 62 65 57 59 65 60 61 60 62 62 62 53 52 46 56 61 69 73 73 75 77 80 83 82 84 85 84 83 83
53 53 53 53 53 53 54 54 55 55 55 55 55 55 60 55 52 61 59 58 57 50 45 51 51 53 65 61 63 60 64 56 63 58 61 65 58 47 58 58 63 68 69 73 78 77 79 80 80 83 83 83 82 81
53 52 53 53 53 53 53 54 55 54 54 54 58 55 51 56 57 58 54 50 48 49 48 46 61 52 62 53 54 54 61 55 55 62 69 59 57 63 65 67 67 70 74 76 74 74 75 76 79 81 82 84 85 83
52 52 52 52 53 53 53 54 54 54 54 57 54 54 58 58 56 50 47 47 47 46 50 56 54 50 61 52 51 55 48 55 51 59 59 61 61 66 71 72 72 73 76 76 78 80 79 80 80 82 83 85 85 85
52 52 52 52 52 53 53 53 54 58 55 50 50 55 54 51 49 43 46 47 49 49 56 51 50 50 52 61 50 54 49 50 49 58 57 58 69 72 73 75 76 75 76 76 77 77 79 78 80 83 84 84 86 85
52 52 52 52 52 53 53 53 54 54 55 59 51 47 47 48 38 39 38 47 47 48 50 50 47 51 58 58 50 48 43 47 59 52 53 64 66 67 68 71 76 79 77 77 76 78 78 79 81 82 83 85 85 83
52 52 52 52 52 53 53 53 54 55 51 47 44 37 43 43 43 44 44 45 50 53 49 50 49 52 56 54 56 49 51 50 47 50 54 59 62 66 69 72 72 74 76 76 76 77 77 79 80 81 82 84 83 80
52 52 52 53 53 53 53 54 54 56 51 45 49 40 48 58 53 52 51 53 58 55 52 50 52 53 54 54 56 56 52 51 56 53 56 58 62 64 67 69 72 74 76 77 78 80 81 81 81 80 81 83 81 81
52 52 56 52 53 53 53 55 56 52 52 48 46 46 57 56 54 53 50 54 57 57 58 53 54 50 53 54 53 52 52 51 54 57 59 61 60 62 65 68 71 73 75 78 80 82 83 82 81 81 82 80 81 80
50 58 52 52 53 53 53 57 52 48 52 50 52 60 58 57 55 54 52 56 62 57 52 49 45 46 55 53 53 55 53 53 56 53 57 59 61 62 66 68 71 72 74 76 78 78 80 81 82 81 78 79 83 81
54 58 52 52 53 54 58 52 49 50 48 55 53 58 61 59 56 57 61 61 58 58 56 48 49 45 45 46 50 53 53 58 60 61 65 66 65 65 68 67 70 71 72 73 74 76 76 76 75 78 79 80 80 81
55 56 52 52 52 49 51 52 53 49 53 59 60 61 61 59 62 62 63 63 63 63 58 58 49 51 55 61 57 59 61 62 63 67 69 67 67 68 68 70 70 70 68 69 72 74 75 76 81 85 85 83 84 85
52 52 52 52 52 47 47 49 54 49 50 57 59 57 58 59 63 64 64 64 62 60 56 56 58 62 64 65 67 67 68 68 69 70 70 72 73 72 70 71 69 62 63 70 72 59 78 78 83 85 86 85 85 83
51 56 53 53 49 47 47 52 46 48 50 51 59 59 57 62 60 60 61 65 59 58 58 65 67 70 70 70 71 70 70 70 69 69 68 71 73 75 75 74 74 73 69 64 73 73 70 78 78 81 80 83 83 82
57 53 52 51 50 51 49 58 52 55 54 57 57 58 56 57 58 61 65 59 60 64 67 67 68 70 69 64 66 71 70 69 70 70 55 64 73 74 74 75 76 74 72 71 69 70 73 72 72 77 78 76 74 77
52 54 52 48 47 45 47 58 48 52 48 52 55 50 52 54 58 64 58 63 65 69 70 70 68 68 68 70 69 70 71 70 73 75 76 77 76 75 75 75 76 74 72 65 71 72 67 57 64 70 70 70 68 70
52 48 43 43 48 43 57 49 52 52 54 50 49 44 48 53 59 55 54 62 68 72 69 65 67 68 69 66 69 71 72 74 74 76 77 77 76 73 74 75 75 75 74 74 73 73 73 71 62 72 70 68 63 60
40 43 43 36 45 44 48 49 50 50 48 48 44 45 51 55 52 53 55 61 65 66 64 68 69 69 69 71 72 73 74 75 74 73 76 78 76 77 76 76 74 74 78 76 72 72 71 68 69 68 63 64 59 57
34 44 40 46 47 48 47 45 47 45 45 43 47 54 54 51 51 52 57 59 60 61 62 64 66 67 70 72 72 73 73 76 76 74 76 80 78 77 75 74 74 72 77 77 74 71 70 68 62 58 56 57 52 61
37 45 50 58 54 50 46 52 50 45 43 44 46 45 45 43 47 53 53 57 55 58 60 63 61 65 65 68 72 73 77 76 75 77 77 77 76 78 78 75 71 73 77 75 71 67 66 64 62 60 60 60 62 64
49 50 45 48 49 52 47 46 46 45 46 48 47 43 42 43 45 50 52 54 54 57 59 61 64 68 65 67 74 74 74 76 75 76 76 76 77 77 75 76 73 49 70 66 62 61 60 59 60 62 63 64 68 71
48 51 50 46 49 46 46 49 51 52 51 48 44 43 44 48 51 55 60 62 65 62 61 62 67 72 70 72 74 76 76 76 70 65 64 63 68 69 72 66 64 65 67 65 45 59 68 70 70 71 72 72 73 74
50 56 50 49 47 47 52 53 51 53 53 51 51 50 50 52 57 64 63 63 62 65 69 69 68 66 67 67 67 68 70 76 74 73 60 58 61 69 64 60 63 67 71 72 71 68 49 67 64 75 74 75 74 73
57 53 49 49 49 54 54 53 52 51 51 50 51 50 51 57 64 66 67 71 70 75 73 72 71 68 68 66 62 67 67 76 73 66 64 69 78 76 76 76 77 76 76 77 77 77 77 76 76 75 75 74 73 71
52 49 49 48 49 52 50 49 49 49 51 53 54 56 59 60 62 69 72 72 76 73 62 72 74 73 76 77 76 72 60 73 77 77 76 79 79 78 79 80 81 82 81 80 80 79 79 77 77 77 75 73 73 72
50 50 50 46 45 46 49 50 49 51 55 56 58 63 65 66 61 69 74 74 75 76 76 76 77 76 75 76 76 76 71 76 58 46 48 52 55 64 80 83 82 81 80 80 80 79 77 75 76 74 73 72 70 69
MSLP
1021.92 1021.77 1021.58 1021.36 1021.18 1020.90 1020.59 1020.41 1020.14 1019.82 1019.57 1019.26 1018.83 1018.51 1018.39 1018.36 1018.33 1018.12 1017.11 1017.09 1016.73 1015.51 1013.34 1012.46 1012.09 1011.72 1011.06 1010.50 1009.41 1008.18 1008.03 1006.93 1006.38 1005.61 1004.39 1003.47 1003.12 1002.03 1001.47 1000.20 999.59 999.67 999.80 999.35 999.47 999.07 998.97 999.64 1000.42 1000.20 999.87 1000.50 1000.83 1001.69
1021.92 1021.88 1021.76 1021.46 1021.28 1021.01 1020.70 1020.40 1019.97 1019.64 1019.26 1019.03 1018.79 1018.54 1018.38 1018.17 1018.22 1018.26 1017.62 1016.96 1017.58 1017.05 1014.61 1013.05 1012.46 1012.00 1011.46 1011.04 1010.46 1009.47 1008.45 1008.12 1007.22 1006.82 1005.80 1004.56 1004.17 1003.14 1002.23 1000.84 1000.85 999.93 999.28 998.83 998.91 998.80 999.14 999.42 999.49 1000.03 1000.24 1000.76 1001.42 1002.08
1021.72 1021.76 1021.74 1021.55 1021.28 1020.96 1020.56 1020.25 1019.98 1019.69 1019.33 1019.06 1018.73 1018.35 1018.25 1018.15 1017.99 1018.18 1017.61 1017.37 1017.45 1016.52 1013.92 1011.58 1010.39 1010.06 1010.48 1010.67 1010.77 1010.25 1009.16 1008.87 1008.35 1008.38 1007.74 1006.97 1005.94 1004.93 1003.81 1002.16 1001.80 1000.90 1000.93 999.91 1000.00 999.73 999.63 999.64 1000.22 1000.54 1000.76 1001.09 1001.78 1002.45
1021.54 1021.41 1021.25 1021.16 1020.97 1020.69 1020.33 1019.96 1019.61 1019.32 1019.09 1018.78 1018.54 1018.38 1018.07 1017.87 1017.81 1017.95 1017.55 1017.16 1017.10 1016.48 1014.58 1010.84 1009.97 1009.90 1009.73 1009.74 1009.70 1009.78 1009.63 1009.42 1009.47 1009.09 1008.63 1008.04 1007.06 1005.88 1004.68 1003.13 1002.93 1001.79 1001.82 1000.60 999.89 1000.11 1000.17 1000.04 1000.36 1000.73 1001.26 1001.67 1002.16 1002.92
1021.25 1021.17 1021.01 1020.81 1020.60 1020.41 1020.11 1019.75 1019.36 1019.09 1018.71 1018.41 1018.29 1018.11 1017.66 1017.66 1017.52 1017.27 1016.39 1016.51 1016.61 1016.62 1014.84 1012.06 1010.44 1008.89 1009.05 1008.94 1009.06 1009.38 1009.62 1009.76 1009.48 1009.27 1008.82 1008.93 1008.61 1007.66 1005.80 1004.98 1003.33 1002.50 1001.66 1001.31 999.80 999.98 999.23 999.91 1000.46 1000.91 1001.32 1001.86 1002.55 1003.14
1021.00 1020.89 1020.78 1020.55 1020.35 1020.07 1019.85 1019.52 1019.10 1018.63 1018.43 1018.14 1017.94 1017.78 1017.47 1017.45 1017.37 1016.48 1015.37 1016.26 1016.29 1016.36 1015.73 1013.00 1009.27 1008.82 1008.75 1008.70 1008.61 1008.92 1009.17 1009.47 1009.50 1009.34 1009.32 1008.90 1009.05 1008.43 1006.96 1004.93 1003.44 1002.01 1002.17 1001.90 1001.59 1000.82 999.85 1000.02 1000.79 1001.06 1001.49 1002.21 1002.86 1003.46
1020.69 1020.62 1020.44 1020.26 1020.09 1019.79 1019.46 1019.13 1018.75 1018.32 1018.07 1017.96 1017.62 1017.46 1017.31 1017.32 1016.98 1016.60 1016.30 1016.66 1016.49 1016.60 1015.71 1013.01 1009.30 1008.92 1009.12 1009.16 1008.87 1008.62 1008.89 1009.40 1009.63 1009.22 1008.93 1009.06 1009.21 1008.33 1007.58 1005.26 1003.14 1002.72 1002.58 1002.09 1001.90 1001.48 1000.91 1000.66 1001.00 1001.28 1001.78 1002.39 1003.15 1003.66
1020.49 1020.41 1020.26 1020.04 1019.89 1019.58 1019.19 1018.80 1018.41 1018.14 1017.76 1017.63 1017.40 1017.01 1016.94 1017.13 1016.98 1016.35 1015.21 1015.70 1016.44 1016.54 1015.19 1012.95 1009.81 1008.30 1008.81 1008.33 1008.18 1008.64 1008.54 1008.98 1008.90 1008.01 1007.67 1007.07 1008.27 1008.09 1006.68 1005.09 1004.00 1003.13 1002.66 1002.05 1001.28 1001.03 1001.20 1000.80 1000.98 1001.53 1001.97 1002.68 1002.93 1003.65
1020.24 1020.13 1019.95 1019.81 1019.58 1019.30 1018.99 1018.63 1018.17 1017.82 1017.48 1017.26 1017.02 1016.75 1016.58 1016.62 1016.06 1014.74 1015.16 1015.40 1015.68 1016.07 1014.48 1012.33 1009.97 1008.10 1008.61 1008.11 1007.95 1008.47 1007.98 1007.69 1007.23 1006.64 1005.86 1005.87 1006.08 1006.05 1004.73 1004.50 1003.85 1002.99 1002.64 1001.22 1000.72 1001.66 1001.84 1000.94 1001.13 1001.49 1002.04 1002.59 1002.96 1003.66
1019.99 1019.89 1019.70 1019.54 1019.35 1019.12 1018.80 1018.40 1017.92 1017.53 1017.11 1016.85 1016.54 1016.12 1015.50 1015.27 1015.20 1015.05 1015.03 1015.10 1015.23 1014.80 1014.26 1012.21 1010.03 1009.18 1008.71 1008.64 1008.05 1008.03 1007.35 1006.35 1005.35 1004.37 1003.89 1004.14 1003.68 1003.32 1003.10 1003.04 1002.59 1002.34 1001.95 1001.88 1001.53 1001.26 1001.35 1001.28 1001.28 1001.43 1001.76 1002.19 1002.63 1003.38
1019.65 1019.56 1019.40 1019.21 1019.11 1018.89 1018.56 1018.17 1017.75 1017.29 1016.68 1016.41 1016.09 1015.65 1015.28 1015.15 1014.92 1014.63 1013.93 1013.76 1013.51 1013.00 1012.41 1010.70 1010.24 1009.70 1008.85 1008.42 1007.97 1007.70 1007.27 1005.89 1004.42 1003.20 1003.00 1001.65 1001.10 1000.97 1001.48 1001.75 1002.15 1001.97 1001.71 1001.77 1001.53 1001.07 1001.24 1001.41 1001.35 1001.24 1001.51 1001.92 1002.43 1003.27
1019.35 1019.24 1019.05 1018.91 1018.82 1018.56 1018.29 1017.95 1017.61 1016.95 1016.86 1017.26 1017.24 1016.42 1015.70 1014.79 1014.32 1014.14 1013.00 1012.56 1012.00 1010.61 1010.19 1010.44 1010.27 1009.86 1009.09 1008.41 1008.24 1007.58 1007.06 1006.21 1004.34 1003.86 1002.83 1000.87 1000.01 1000.26 1000.50 1000.30 1000.75 1001.46 1001.46 1001.40 1001.38 1001.24 1001.12 1001.30 1001.29 1001.27 1001.30 1001.74 1002.24 1003.16
1019.04 1018.89 1018.69 1018.58 1018.42 1018.17 1017.98 1017.79 1017.59 1017.40 1016.83 1016.16 1016.44 1015.72 1015.01 1014.39 1013.86 1013.22 1012.44 1011.03 1010.76 1010.79 1010.73 1010.56 1010.15 1009.41 1008.26 1008.15 1007.86 1007.40 1007.01 1005.71 1004.57 1003.65 1002.10 1000.55 1000.84 1001.10 1001.04 1000.70 1000.24 1000.30 1000.77 1000.94 1000.92 1001.00 1001.08 1001.11 1001.26 1001.49 1001.49 1001.94 1002.64 1003.37
1018.73 1018.51 1018.33 1018.12 1017.92 1017.76 1017.64 1017.52 1017.38 1017.09 1016.88 1016.03 1015.40 1014.62 1013.90 1012.78 1012.41 1011.85 1011.65 1011.39 1010.96 1010.63 1010.52 1010.08 1009.46 1008.56 1007.36 1006.99 1006.36 1005.88 1005.66 1005.42 1004.12 1002.59 1001.63 1001.73 1001.60 1001.51 1001.11 1000.91 1000.69 1000.55 1000.62 1000.73 1000.81 1000.74 1000.71 1000.84 1001.03 1001.49 1001.90 1002.28 1002.75 1003.34
1018.36 1018.11 1017.82 1017.48 1017.38 1017.30 1017.17 1017.14 1017.19 1017.04 1016.41 1015.59 1014.59 1013.34 1011.83 1010.74 1011.10 1011.07 1011.16 1010.77 1010.20 1010.08 1010.02 1009.39 1008.59 1007.92 1006.68 1006.01 1005.27 1004.67 1004.32 1003.63 1002.81 1002.67 1002.64 1002.48 1002.41 1001.86 1001.41 1001.07 1000.58 1000.33 1000.37 1000.40 1000.46 1000.31 1000.44 1000.75 1001.12 1001.51 1001.95 1002.35 1002.81 1003.35
1017.97 1017.53 1017.03 1017.21 1017.11 1016.98 1016.97 1016.94 1016.86 1016.76 1015.73 1014.84 1014.07 1012.41 1010.70 1010.16 1010.01 1010.42 1010.57 1010.03 1009.80 1009.47 1009.03 1008.78 1007.73 1006.98 1005.97 1005.47 1004.58 1003.91 1003.64 1003.25 1003.40 1003.28 1003.36 1003.13 1002.72 1002.45 1001.84 1001.32 1000.71 1000.38 1000.06 999.99 999.96 999.97 1000.19 1000.55 1000.94 1001.30 1001.84 1002.27 1002.58 1002.95
1017.73 1016.74 1017.14 1016.92 1016.50 1016.40 1016.73 1016.56 1016.50 1015.96 1014.57 1013.18 1011.71 1010.85 1010.46 1009.99 1009.85 1009.92 1010.14 1009.69 1009.38 1009.14 1008.41 1008.39 1007.90 1007.18 1006.23 1004.99 1004.23 1004.21 1003.97 1004.27 1004.18 1003.71 1003.74 1003.45 1003.00 1002.70 1002.26 1001.71 1000.82 1000.32 1000.00 999.83 999.94 1000.04 1000.14 1000.51 1000.89 1001.20 1001.53 1001.91 1002.14 1002.54
1016.96 1016.64 1017.11 1017.04 1016.85 1016.69 1016.24 1016.56 1015.90 1014.74 1013.26 1011.80 1010.73 1009.80 1009.52 1009.64 1009.46 1009.29 1009.03 1009.02 1008.98 1008.48 1008.31 1008.24 1008.09 1007.04 1005.68 1004.44 1004.27 1004.29 1004.31 1004.21 1004.06 1003.80 1003.44 1003.28 1003.20 1002.74 1002.13 1001.69 1001.19 1000.92 1000.62 1000.50 1000.33 1000.32 1000.57 1000.71 1000.83 1000.91 1001.22 1001.56 1002.04 1002.42
1016.70 1016.83 1017.04 1017.10 1017.12 1016.89 1015.86 1015.62 1015.32 1013.64 1011.93 1010.67 1009.97 1009.54 1009.23 1009.03 1008.62 1008.39 1008.34 1008.08 1008.12 1008.25 1008.06 1007.09 1006.65 1005.25 1004.38 1003.95 1003.99 1003.84 1003.73 1003.61 1003.37 1003.14 1003.00 1003.03 1002.79 1002.43 1002.17 1001.75 1001.36 1001.17 1001.38 1001.13 1000.82 1000.55 1000.73 1000.79 1000.50 1000.32 1000.58 1001.20 1001.31 1001.76
1016.90 1016.83 1016.82 1016.96 1017.09 1016.65 1015.63 1014.95 1014.87 1013.78 1011.73 1010.22 1009.88 1009.19 1008.66 1008.26 1007.69 1007.40 1007.25 1007.10 1007.29 1007.25 1006.67 1005.66 1004.64 1003.99 1003.59 1003.84 1003.88 1003.71 1003.56 1003.52 1003.12 1002.48 1002.34 1002.24 1002.22 1002.05 1002.04 1001.84 1001.53 1001.37 1001.51 1000.85 1001.12 1001.38 1001.02 1000.87 1000.63 1000.42 1000.55 1000.84 1000.92 1001.61
1016.65 1016.22 1016.49 1016.71 1016.75 1016.62 1015.68 1014.26 1013.99 1013.10 1011.91 1010.70 1009.24 1008.73 1007.98 1007.29 1006.94 1006.60 1006.25 1006.28 1006.43 1005.58 1004.79 1004.24 1003.70 1003.43 1003.71 1003.69 1003.89 1003.88 1003.58 1003.45 1003.13 1003.05 1002.87 1002.28 1002.28 1001.90 1001.78 1001.90 1002.08 1002.05 1002.44 1002.44 1001.74 1001.68 1001.25 1000.95 1001.33 1001.29 1001.51 1001.51 1001.64 1002.25
1015.86 1016.20 1016.33 1016.52 1015.90 1015.39 1014.84 1013.40 1012.93 1012.21 1011.47 1009.72 1008.98 1008.56 1007.57 1006.46 1005.77 1005.44 1005.60 1005.45 1004.58 1003.80 1003.50 1003.27 1003.07 1003.14 1003.22 1003.66 1003.82 1003.69 1003.65 1003.66 1003.52 1003.28 1003.36 1002.81 1002.20 1002.02 1001.91 1001.95 1001.74 1001.92 1002.33 1002.69 1002.38 1002.17 1002.15 1002.06 1002.38 1002.32 1002.12 1002.56 1002.97 1003.55
1016.14 1016.03 1015.84 1015.83 1015.24 1014.55 1013.40 1012.73 1012.38 1011.41 1010.42 1009.26 1008.66 1008.01 1007.09 1006.38 1005.72 1005.66 1004.75 1003.68 1003.11 1002.81 1002.68 1002.65 1002.78 1003.07 1003.06 1003.07 1003.39 1003.49 1003.50 1003.37 1002.90 1002.77 1002.75 1002.47 1002.55 1002.54 1002.36 1002.42 1002.32 1002.30 1002.36 1003.22 1003.01 1002.86 1003.22 1003.45 1003.45 1003.56 1003.91 1003.98 1004.40 1005.25
1016.05 1015.84 1015.41 1014.85 1014.33 1013.35 1012.10 1011.78 1011.49 1010.69 1009.76 1009.16 1008.52 1008.20 1007.43 1006.37 1005.68 1005.03 1003.84 1002.74 1002.26 1002.36 1002.44 1002.66 1002.72 1002.55 1002.63 1002.84 1002.56 1002.61 1002.81 1002.96 1002.78 1002.74 1002.77 1002.55 1002.29 1002.74 1002.96 1002.85 1002.89 1002.94 1003.04 1003.13 1003.23 1003.26 1003.43 1003.64 1003.91 1004.23 1004.89 1005.37 1005.37 1006.22
1015.85 1015.24 1014.85 1014.04 1013.55 1012.89 1011.32 1010.51 1010.02 1009.65 1009.07 1008.88 1008.73 1007.91 1006.74 1006.14 1005.31 1004.30 1003.32 1002.70 1002.49 1002.46 1002.56 1002.38 1002.29 1002.12 1001.77 1001.51 1001.65 1001.81 1002.23 1002.38 1002.32 1002.43 1002.58 1002.79 1002.89 1002.86 1003.00 1003.07 1003.25 1003.46 1003.24 1003.16 1003.58 1003.89 1004.28 1004.77 1004.82 1005.64 1006.08 1007.36 1006.11 1007.82
1014.79 1013.90 1013.60 1012.38 1011.92 1011.27 1010.60 1009.74 1009.34 1009.29 1009.34 1009.23 1008.37 1007.14 1006.64 1006.14 1005.12 1003.85 1003.43 1003.56 1003.40 1003.22 1002.99 1002.62 1002.16 1001.88 1001.70 1001.57 1001.41 1001.38 1001.80 1002.29 1002.20 1002.22 1002.46 1002.66 1002.84 1002.71 1002.82 1002.85 1002.89 1003.45 1003.72 1003.75 1004.09 1004.49 1005.09 1005.75 1006.03 1006.71 1007.53 1008.23 1008.04 1008.38
1013.58 1012.18 1011.86 1011.33 1010.94 1010.96 1010.49 1009.56 1009.49 1009.53 1009.20 1008.58 1008.10 1007.84 1007.52 1006.71 1005.51 1004.86 1004.92 1004.67 1004.72 1004.43 1004.11 1003.48 1003.20 1002.59 1002.34 1002.05 1002.06 1002.19 1002.03 1002.21 1002.41 1002.32 1002.95 1003.23 1003.43 1003.37 1003.15 1003.12 1003.40 1003.98 1004.06 1004.66 1005.26 1005.62 1006.01 1006.70 1007.14 1007.61 1008.12 1008.35 1008.53 1008.67
1012.14 1011.29 1010.89 1010.63 1010.48 1010.25 1009.99 1009.62 1009.09 1008.66 1008.38 1008.36 1008.41 1008.18 1007.98 1007.38 1006.53 1005.89 1005.42 1004.91 1004.75 1004.42 1003.92 1003.56 1003.17 1002.70 1002.69 1002.44 1001.88 1002.14 1002.29 1002.56 1003.05 1003.10 1003.41 1003.72 1003.69 1003.94 1004.24 1004.40 1004.96 1005.52 1005.48 1006.01 1006.50 1006.70 1006.90 1007.46 1007.52 1007.83 1007.91 1007.96 1008.03 1008.32
1011.12 1010.71 1010.45 1010.05 1009.83 1009.93 1009.37 1008.78 1008.05 1007.93 1008.07 1008.29 1008.36 1008.35 1008.20 1007.20 1006.39 1005.45 1004.68 1004.21 1003.71 1003.38 1002.94 1002.56 1002.19 1001.93 1002.14 1002.16 1002.10 1002.19 1002.40 1002.39 1002.82 1003.42 1003.84 1004.19 1004.32 1005.06 1005.47 1005.91 1006.20 1006.27 1006.09 1006.54 1006.92 1006.89 1007.00 1007.18 1007.35 1007.18 1007.18 1007.31 1007.61 1008.00
1009.79 1009.71 1009.59 1009.25 1008.89 1008.27 1007.85 1007.93 1007.94 1007.87 1007.94 1007.99 1007.86 1007.69 1007.23 1006.11 1005.00 1004.30 1003.88 1003.41 1003.04 1002.61 1002.19 1001.87 1001.83 1001.89 1001.88 1002.20 1002.41 1002.69 1002.97 1002.80 1002.70 1003.30 1004.39 1004.82 1005.20 1005.77 1006.20 1006.58 1006.81 1006.84 1006.46 1006.48 1006.79 1007.21 1007.47 1007.21 1007.34 1007.04 1007.10 1007.28 1007.56 1008.03
1009.14 1009.17 1009.07 1008.65 1008.00 1007.58 1007.60 1007.69 1007.62 1007.54 1007.33 1007.05 1006.85 1006.78 1006.22 1005.30 1003.90 1003.49 1003.06 1002.56 1002.43 1001.86 1001.62 1001.39 1001.47 1001.91 1002.04 1002.49 1002.74 1002.66 1003.01 1003.02 1003.59 1004.34 1004.52 1004.63 1004.75 1005.20 1005.57 1005.97 1006.07 1006.20 1006.25 1006.07 1006.27 1006.52 1006.67 1006.63 1006.74 1006.90 1007.03 1007.22 1007.75 1007.84
1008.56 1008.44 1008.22 1007.78 1007.58 1007.49 1007.58 1007.20 1006.65 1006.11 1005.65 1005.60 1005.39 1005.18 1004.51 1003.93 1002.87 1002.70 1003.15 1002.59 1001.82 1001.88 1002.02 1001.49 1001.69 1002.04 1002.11 1002.25 1002.69 1003.11 1003.42 1003.78 1003.89 1004.49 1004.82 1004.44 1004.76 1005.24 1005.50 1005.58 1005.59 1005.57 1005.60 1005.75 1006.00 1006.25 1006.32 1006.38 1006.49 1006.71 1007.13 1007.67 1007.96 1008.32
1007.99 1007.85 1007.80 1007.84 1007.34 1006.63 1006.14 1005.93 1005.54 1005.41 1004.93 1004.27 1003.89 1003.39 1003.00 1002.57 1002.88 1003.14 1003.39 1003.26 1002.66 1002.25 1002.33 1002.42 1002.63 1002.94 1003.02 1002.99 1003.25 1003.40 1003.34 1004.12 1004.99 1005.15 1005.19 1005.35 1005.51 1005.48 1005.41 1005.45 1005.66 1005.82 1005.87 1005.85 1005.99 1006.35 1006.65 1006.96 1007.08 1007.41 1007.69 1008.19 1008.71 1009.08
Wind_Speed
6 8 9 8 9 9 10 11 11 11 12 13 10 7 4 4 2 3 3 3 5 5 13 16 15 13 11 8 8 7 8 8 7 8 12 8 10 7 6 12 19 15 12 13 18 16 17 11 11 15 4 4 8 9
7 8 10 10 10 11 11 12 11 11 11 11 11 6 5 4 3 2 3 1 1 4 9 18 18 19 19 16 13 5 10 6 4 4 5 5 6 6 7 9 4 12 16 12 12 13 3 18 10 9 4 7 8 11
6 8 10 11 11 12 12 12 12 12 11 12 12 11 7 5 3 2 3 2 2 4 10 13 12 11 15 17 18 13 9 13 7 4 3 4 7 3 7 9 5 6 4 6 7 7 10 14 5 11 6 7 10 12
6 7 8 9 11 12 12 12 11 10 11 11 11 12 12 4 4 4 3 1 2 3 4 6 1 7 10 13 14 18 18 5 4 5 4 4 6 5 8 8 7 7 5 4 5 6 7 10 11 11 9 12 13 13
6 7 8 9 10 12 13 13 12 11 10 10 11 12 9 5 5 8 8 5 7 3 4 10 22 9 6 9 18 16 15 15 10 6 5 3 4 4 6 10 12 8 5 5 5 7 5 11 14 12 14 15 16 17
7 7 8 9 10 11 13 13 14 10 9 9 11 11 9 3 6 6 4 2 4 2 2 5 7 4 5 4 8 14 12 9 9 6 4 4 1 5 4 8 13 12 5 5 5 4 6 11 14 14 14 17 17 16
7 7 7 9 10 11 12 14 13 9 8 8 8 9 8 4 6 5 4 2 2 1 3 6 4 3 1 1 2 5 12 6 6 5 5 3 5 2 3 5 9 10 4 4 3 7 7 14 11 13 16 18 16 17
6 7 8 9 11 12 12 14 11 10 9 9 9 11 5 4 9 6 3 8 6 3 4 5 5 4 3 3 4 4 6 8 7 7 7 9 6 2 5 12 22 16 12 12 2 2 8 11 17 15 17 18 19 18
7 7 8 9 10 12 13 14 12 10 10 9 10 8 5 3 3 1 6 5 4 2 3 5 4 4 1 2 2 4 6 7 6 8 9 7 8 8 13 11 15 19 12 7 7 5 6 11 17 17 19 19 19 18
6 8 9 9 10 12 13 14 11 11 11 11 6 2 3 1 7 6 4 3 4 4 4 5 5 6 4 1 3 3 4 4 6 9 6 10 10 13 15 10 11 15 12 8 11 8 6 10 15 18 20 19 17 17
7 8 9 9 10 12 12 14 11 12 7 2 2 2 5 3 3 2 3 4 4 5 5 5 5 7 4 4 2 2 3 4 4 4 6 6 6 12 14 16 11 11 10 11 14 11 10 10 14 17 17 18 17 17
8 9 9 10 11 11 11 12 10 6 3 4 4 5 3 3 3 3 4 1 6 4 3 1 2 4 4 2 3 0 2 3 3 2 4 4 1 6 6 13 15 15 17 13 12 10 11 9 11 13 15 15 16 17
8 9 10 11 12 11 10 10 7 8 10 3 4 3 3 1 3 4 3 3 2 5 2 3 4 4 5 4 3 3 2 5 5 4 4 4 7 5 4 5 11 14 12 12 10 9 10 9 10 11 11 12 13 13
9 10 11 11 10 10 10 10 6 5 3 2 3 3 4 4 5 4 2 3 2 3 7 7 5 4 4 5 3 5 7 4 4 4 1 4 8 8 6 2 7 9 11 13 10 9 9 8 7 6 6 7 9 12
10 11 11 13 7 7 7 6 4 2 3 3 4 5 7 5 5 3 3 5 3 4 5 5 5 4 3 5 4 4 2 5 2 4 3 6 8 9 9 7 3 8 10 12 10 9 9 8 7 8 8 7 8 9
9 13 1 4 10 9 4 4 2 2 3 3 5 5 6 6 3 2 3 4 5 6 7 3 4 3 1 4 4 3 4 2 4 3 5 6 9 10 10 9 6 3 6 11 10 10 10 10 10 8 8 7 8 10
7 2 9 8 7 4 5 4 3 4 5 4 5 6 8 8 7 4 3 5 4 6 3 2 3 3 4 4 2 4 2 4 5 5 5 6 9 10 9 7 8 5 2 5 6 7 8 8 10 9 10 9 9 10
4 3 4 7 8 3 4 2 3 4 7 7 8 6 5 6 7 8 7 6 4 3 3 1 3 3 3 3 3 3 3 1 2 4 4 5 5 7 7 7 7 7 5 2 4 5 6 9 10 10 10 9 8 8
5 3 4 6 6 3 3 5 4 5 6 6 6 7 6 7 8 9 8 7 6 4 4 3 5 4 1 2 3 3 2 1 1 2 3 3 5 7 7 6 5 11 8 6 3 3 5 9 9 8 8 8 8 9
7 9 8 5 3 2 4 2 2 5 5 4 7 8 6 7 7 6 6 5 5 4 5 5 5 1 2 4 4 5 4 3 4 2 4 4 5 5 8 8 7 9 10 12 8 4 5 5 3 4 6 8 8 8
4 3 3 5 2 3 4 2 5 4 5 5 6 7 8 7 8 8 7 7 7 5 7 7 8 6 3 3 3 5 3 3 4 4 5 5 6 4 5 5 4 4 3 4 4 1 1 4 4 3 4 5 4 5
2 4 2 3 4 5 5 5 4 5 5 7 9 5 6 6 6 5 3 7 6 9 9 9 8 7 7 6 5 4 4 3 3 2 5 3 5 6 6 6 6 5 5 3 4 5 4 6 4 3 5 7 7 8
3 4 2 3 4 3 5 4 4 4 5 4 3 4 3 3 2 2 5 5 4 5 6 7 8 9 10 9 5 6 5 5 4 2 1 2 3 5 5 5 5 6 6 6 4 5 4 2 7 7 7 9 11 9
2 1 4 4 6 5 3 4 5 5 4 4 2 4 4 4 2 4 5 4 4 2 4 6 6 6 7 8 8 8 8 6 5 2 1 3 4 5 5 5 4 5 5 5 4 5 7 8 8 10 10 12 12 11
3 4 4 3 3 4 6 5 5 5 5 3 2 5 4 2 3 4 4 2 3 1 2 4 5 6 6 5 6 8 9 7 6 5 3 1 1 2 2 3 5 5 3 5 6 7 7 8 12 11 11 9 20 15
5 7 6 5 4 7 5 4 3 2 2 3 6 3 3 3 5 4 2 4 4 4 4 4 4 3 4 3 4 4 7 8 6 5 3 2 1 1 2 2 2 6 4 5 7 9 11 12 13 14 11 6 15 15
5 6 5 5 3 2 4 5 3 3 4 4 2 3 2 3 4 4 4 4 5 7 7 6 5 6 3 3 1 1 2 6 6 2 6 4 4 3 2 1 5 5 5 10 10 10 11 11 11 11 9 8 10 11
5 4 7 4 4 4 6 3 4 4 3 2 1 2 3 3 3 3 3 6 8 9 6 5 4 3 3 3 3 6 7 7 7 7 8 6 5 6 6 7 8 10 9 8 9 8 7 7 7 8 8 7 8 8
5 5 4 9 6 4 6 6 4 2 2 2 2 2 3 4 3 8 10 8 7 6 4 3 3 4 6 5 5 5 7 7 10 13 12 8 10 10 9 8 6 6 5 8 7 5 10 9 9 8 7 7 8 8
6 6 5 5 5 5 4 2 2 2 0 1 1 3 4 6 7 8 6 3 1 3 3 4 4 3 7 7 7 8 6 8 9 9 8 7 8 10 9 10 9 5 0 5 8 8 7 9 8 8 8 8 7 8
2 4 5 5 5 4 3 3 4 4 5 5 7 8 8 6 2 2 3 4 2 2 4 7 8 7 7 7 5 8 9 7 16 14 7 4 10 10 10 9 6 5 6 7 9 9 8 8 8 8 7 8 8 7
4 6 5 7 6 2 5 4 3 4 2 5 6 7 5 6 5 4 5 5 5 5 2 5 8 8 8 7 9 7 10 10 10 11 15 6 7 7 7 7 7 8 8 9 9 8 8 7 6 6 8 7 7 7
3 4 4 3 3 4 3 2 2 1 1 1 2 4 4 7 6 4 3 6 7 7 8 7 8 8 9 11 10 8 9 11 11 11 13 12 9 4 7 6 7 7 7 6 7 7 5 5 5 5 6 8 8 8
Wind_Direction
288 294 304 313 308 322 324 326 329 331 333 331 338 350 342 328 326 292 303 243 279 276 293 281 273 269 268 254 278 323 296 192 256 245 251 231 240 240 265 255 204 199 200 211 224 218 227 143 154 207 246 131 139 173
303 316 320 318 316 320 322 323 324 324 328 329 331 304 309 304 301 244 274 94 81 252 291 309 284 275 267 262 268 276 289 310 311 280 278 300 236 201 273 240 185 229 224 210 226 205 108 170 207 197 194 158 162 159
319 319 320 321 322 323 324 322 322 322 327 325 319 324 302 278 278 244 284 280 225 261 279 252 244 240 229 239 248 259 252 254 260 345 309 278 252 285 247 234 299 233 329 253 185 167 174 177 179 149 162 140 155 161
310 309 314 317 319 319 319 316 316 314 318 320 316 313 308 294 293 266 255 246 237 283 278 309 72 224 271 271 227 232 251 283 316 275 268 274 264 237 226 295 282 309 320 247 215 133 144 182 177 168 148 140 148 150
292 299 306 310 314 318 320 323 317 307 312 315 314 311 304 257 283 277 259 216 234 252 297 307 297 278 250 245 231 223 228 236 251 263 237 236 294 273 256 260 259 247 279 243 222 181 169 174 177 164 151 149 148 148
293 300 306 312 312 316 318 318 317 301 292 309 310 306 308 279 296 296 238 107 234 186 285 284 341 303 281 245 211 218 220 223 224 221 250 244 18 254 247 243 243 270 258 249 303 231 51 145 170 167 152 151 149 149
288 294 304 311 316 318 319 317 314 311 318 309 310 315 287 266 277 263 343 35 65 125 248 272 260 103 292 310 192 204 195 179 216 235 216 248 207 144 259 261 232 221 155 352 282 187 78 157 162 160 155 148 148 145
289 297 305 313 318 320 320 319 320 318 317 314 308 309 267 256 258 274 203 204 189 272 266 273 273 234 199 233 150 171 182 185 208 227 235 242 128 148 262 229 255 282 289 293 322 104 304 173 146 159 152 153 149 149
282 296 308 311 316 320 320 319 320 316 313 309 306 294 249 232 231 66 65 146 184 257 270 240 287 345 8 305 62 188 199 190 228 216 232 221 195 208 230 224 242 247 259 303 350 203 226 168 162 162 163 163 156 154
292 299 307 307 314 318 319 321 317 317 310 296 271 250 237 139 348 304 183 208 194 194 224 257 283 272 295 244 215 206 216 246 204 208 202 221 240 225 227 240 212 247 268 258 252 232 190 189 178 174 175 174 165 162
290 296 305 306 309 314 318 321 319 321 290 230 267 273 348 315 254 230 243 207 178 213 208 231 250 261 271 246 258 140 252 263 239 168 216 212 227 228 226 226 207 238 258 252 245 255 201 196 196 182 181 179 172 171
287 289 297 302 303 309 313 320 316 298 15 313 294 270 295 264 215 266 274 197 231 238 167 271 253 225 259 199 268 50 264 286 259 156 239 239 171 161 276 225 226 217 232 238 223 217 210 198 194 192 180 176 182 177
288 294 297 295 300 302 302 308 303 302 287 241 214 240 242 256 252 230 246 208 237 7 24 322 296 260 204 197 260 199 220 256 317 212 227 293 55 49 4 280 220 210 210 217 214 211 190 170 173 186 176 178 176 180
293 295 295 299 298 293 289 295 302 312 276 256 257 249 235 201 237 197 202 249 260 273 312 302 266 246 223 206 225 236 183 209 233 230 129 34 12 20 4 345 220 201 198 195 195 179 166 168 162 165 188 185 184 188
293 297 297 287 286 286 287 273 256 293 276 249 231 238 225 233 200 236 281 273 298 255 260 259 231 238 230 254 215 275 202 242 278 26 25 11 347 349 354 356 238 201 200 198 196 181 173 168 179 195 199 199 199 197
299 289 268 336 298 293 264 216 233 256 247 241 229 273 254 265 285 3 258 299 307 306 301 257 283 265 261 302 258 253 291 3 22 24 13 342 350 345 342 341 341 265 211 203 208 200 196 198 201 195 188 198 205 205
276 243 22 10 6 157 184 231 216 235 262 243 240 244 272 283 279 247 265 283 314 301 328 307 268 337 297 265 248 358 338 28 20 345 343 328 326 329 329 339 360 359 195 198 196 198 203 201 207 201 198 198 203 190
242 87 14 8 341 165 179 205 259 252 244 243 257 269 256 266 276 272 258 247 269 270 291 353 304 254 229 275 148 195 257 280 156 237 294 337 330 332 334 351 15 36 53 91 180 194 191 192 193 199 199 172 178 174
17 340 324 335 348 302 232 201 229 264 255 283 284 276 270 275 265 264 262 260 243 257 271 223 244 238 273 15 2 28 52 102 345 1 335 323 338 353 9 8 13 42 29 33 82 121 181 193 206 197 182 159 189 172
275 270 267 268 298 272 248 215 324 277 277 329 294 275 268 267 281 274 255 231 207 210 223 231 247 351 296 66 26 14 357 352 321 8 46 56 23 16 26 20 28 4 356 353 358 311 159 166 165 181 165 177 162 156
205 133 142 183 206 223 282 240 223 232 276 263 285 304 282 268 244 251 236 210 212 226 229 241 255 272 301 326 336 350 353 330 359 355 4 14 355 22 36 38 72 151 160 336 325 131 239 73 71 120 157 159 123 135
137 156 171 189 246 208 248 227 270 302 258 277 291 243 267 265 258 227 214 209 238 237 236 248 251 249 238 228 256 269 341 309 279 289 223 244 16 21 22 24 16 56 60 49 35 24 43 75 70 79 110 114 118 131
252 200 222 206 252 227 252 204 250 260 255 262 257 255 263 282 265 159 238 226 250 246 248 247 249 255 262 267 207 236 235 260 257 269 151 356 40 18 12 29 22 34 48 42 9 78 72 96 88 105 99 96 103 104
131 237 232 213 210 259 239 227 209 252 246 245 256 285 263 245 230 242 252 247 220 187 220 222 222 226 214 231 234 221 205 220 239 248 315 324 14 48 21 37 62 58 51 58 71 90 98 92 108 103 104 108 93 80
198 223 223 235 252 254 250 244 229 239 256 13 298 244 240 250 249 240 240 238 202 246 250 212 216 226 238 222 211 211 200 209 208 228 169 252 80 145 86 72 72 55 39 85 92 96 99 97 98 96 91 109 98 87
231 200 207 207 218 229 208 250 233 244 273 248 250 288 319 286 256 252 51 29 7 359 344 320 289 237 231 243 262 199 171 211 207 225 148 184 61 25 14 46 101 94 62 95 112 111 113 108 102 87 80 114 105 114
238 215 213 255 264 291 286 260 270 253 244 246 245 341 313 273 281 23 343 17 356 335 320 306 294 282 288 289 192 181 193 176 199 144 107 105 74 24 357 88 67 78 99 85 72 75 100 97 102 114 120 117 143 146
258 262 226 227 232 246 272 295 253 237 234 215 302 311 299 293 299 333 305 318 314 294 271 254 259 260 263 208 194 152 152 133 132 130 114 110 96 77 71 75 71 41 73 97 116 122 113 124 158 159 164 168 149 158
233 222 253 252 231 225 226 229 256 218 150 160 218 200 274 246 252 272 283 281 274 268 272 221 195 168 162 151 139 150 157 161 146 147 136 128 107 85 66 64 75 61 80 100 65 146 167 169 168 177 165 140 141 152
239 210 242 247 237 226 221 197 283 350 174 199 250 239 251 257 259 268 254 267 350 30 24 60 99 143 138 133 131 122 139 171 181 135 122 123 144 145 118 113 127 177 226 104 116 117 119 117 120 133 132 137 141 140
249 199 238 241 261 259 294 304 281 263 236 221 221 244 251 284 211 204 41 45 63 161 98 85 92 109 127 126 133 131 115 82 107 113 116 184 120 136 145 152 170 170 173 155 140 142 144 137 124 126 126 115 120 144
212 219 238 269 289 333 315 251 236 242 194 198 182 200 208 194 115 78 22 297 120 94 17 56 78 72 81 96 109 109 137 154 152 145 171 169 121 135 151 152 151 140 142 137 136 139 126 119 111 112 124 124 124 117
234 251 261 297 253 243 206 275 6 231 238 208 138 120 88 72 73 62 73 18 12 51 63 68 79 86 81 86 95 100 91 82 73 66 61 65 70 76 142 138 125 137 150 144 131 123 117 89 87 81 92 108 117 118